Showing default

OV1-9, 2610

Orbit data source: Space-Track

OV1-9, 2610 is a payload satellite owned by USAF OAR (US) in LEO that was launched on Sun, 11 Dec 1966 UTC via an ATLAS D launch vehicle from the Air Force Western Test Range (AFWTR). Payload-class satellites include a variety of spacecraft equipped with specific instruments for various scientific and technological missions. These include communications satellites like Starlink; space stations such as the ISS; scientific satellites like the Hubble; Earth observation satellites from companies like Planet Labs, Umbra, and HawkEye 360; GPS; miniature CubeSats for education and research; and military/defense satellites.

Loading next visibility...
Identifier
2610, 1966-111A
Orbit
LEO
Country
Flag of USUS
Related business
Manufacturer
GD/Convair
Mission
Spacecraft
Bus & Motor
OV1, Unknown motor
Mass
106 kg wet, 106 kg dry
Launch date (UTC)
1966-12-11 (59 years ago)
Launch vehicle
ATLAS D
Launch site
Air Force Western Test Range (AFWTR)
Object type
Payload
Rocket body
Debris
Shape & HBR
Unknown
Radar Cross Section
Medium (>0.1 m² and <1 m²)

Expand to show TLE details & history
Last TLE update: 19 hours ago

TLE from 19 hours ago
0 OV1-9
1 02610U 66111A   25286.36813376  .00001541  00000-0  61151-3 0  9992
2 02610  99.1080 199.5648 2274153  34.7717 338.2711 10.39482762207380
Epoch: 2025-10-13T08:50Z
TLE epoch observation values (Epoch: 2025-10-13T08:50:06.756Z)
Latitude
-0.00007°
Longitude
44.86474°
Altitude
708.655 km
Speed
8.221 km/s
True Right ascension
13h 18m 15s
True Declination
0° 00' 00"
Sunlit
Object was in daylight at epoch
Visualization orbit readout
Latitude
Unknown
Longitude
Unknown
Altitude
Unknown
Speed
Unknown
Apparent Right ascension
Unknown
Apparent Declination
Unknown
Sunlit
N/A
Visualization observer readout
Local Sidereal Time
22:13:35
Azimuth
Unknown
Elevation
Unknown
Doppler factor
Unknown
Orbital elements
Apogee altitude
4,504.321 km
Perigee altitude
471.721 km
Semi-major axis
8,866.158 km
Eccentricity
0.22742
Inclination
99.108°
RAAN
199.5648°
Arg. of periapsis
34.7717°
True anomaly
325.34272°
Mean anomaly
338.2711°
Eccentric anomaly
332.19263°
Mean motion
2.5998 °/min
Orbital period
138.47 mins
BSTAR
0.00061151
Loading maneuver chart data...
Computing Atmospheric mass density...
Loading historical data...
Loading historical data...
Loading historical data...
Loading historical data...
Loading historical data...
Loading historical data...
Loading historical data...
Other satellites on launch #111 in the year 1966 (1966-12-11 UTC)

Documentation

Showing up to 5 results
|